• In Hungary
  • List of Countries
  • For 7 days
  • Water Temperature
  • Satellite Maps
  • Weather Map
  • News
  • Weather Widgets
  • user-avatar
    Login

    Hourly Weather Prince Edward Island National Park

    Today, 25 May, Friday

    Time Temperature Precipitation Wind Pressure Humidity
    00:00 +5°C° 0.1 mm 7 mps 757 mmHg 70%
    01:00 +5°C° 0.1 mm 7 mps 756 mmHg 73%
    02:00 +5°C° 0.1 mm 8 mps 755 mmHg 76%
    03:00 +5°C° 0.7 mm 8 mps 755 mmHg 82%
    04:00 +5°C° 0.7 mm 9 mps 754 mmHg 87%
    05:00 +5°C° 0.7 mm 9 mps 753 mmHg 93%
    06:00 +5°C° 0.9 mm 9 mps 752 mmHg 93%
    07:00 +5°C° 0.9 mm 9 mps 751 mmHg 92%
    08:00 +5°C° 0.9 mm 9 mps 750 mmHg 92%
    09:00 +6°C° 0.6 mm 9 mps 750 mmHg 92%
    10:00 +7°C° 0.6 mm 8 mps 749 mmHg 91%
    11:00 +9°C° 0.6 mm 8 mps 748 mmHg 91%
    12:00 +10°C° 0.1 mm 7 mps 748 mmHg 88%
    13:00 +13°C° 0.1 mm 6 mps 748 mmHg 84%
    14:00 +14°C° 0.1 mm 5 mps 747 mmHg 81%
    15:00 +14°C° 0.1 mm 4 mps 747 mmHg 78%
    16:00 +16°C° 0.1 mm 3 mps 747 mmHg 76%
    17:00 +16°C° 0.1 mm 2 mps 747 mmHg 74%
    18:00 +14°C° 0.5 mm 3 mps 747 mmHg 81%
    19:00 +13°C° 0.5 mm 3 mps 747 mmHg 87%
    20:00 +11°C° 0.5 mm 4 mps 747 mmHg 94%
    21:00 +12°C° 0.1 mm 4 mps 747 mmHg 95%
    22:00 +12°C° 0.1 mm 4 mps 747 mmHg 96%
    23:00 +12°C° 0.1 mm 5 mps 747 mmHg 97%

    Tomorrow, 26 May, Saturday

    Time Temperature Precipitation Wind Pressure Humidity
    00:00 +12°C° 0 mm 5 mps 747 mmHg 95%
    01:00 +12°C° 0 mm 5 mps 747 mmHg 94%
    02:00 +12°C° 0 mm 5 mps 747 mmHg 93%
    03:00 +9°C° 0 mm 5 mps 747 mmHg 94%
    04:00 +8°C° 0 mm 6 mps 748 mmHg 94%
    05:00 +7°C° 0 mm 6 mps 748 mmHg 95%
    06:00 +7°C° 0 mm 6 mps 749 mmHg 91%
    07:00 +7°C° 0 mm 6 mps 750 mmHg 87%
    08:00 +7°C° 0 mm 6 mps 751 mmHg 84%
    09:00 +7°C° 0 mm 6 mps 752 mmHg 81%
    10:00 +8°C° 0 mm 6 mps 753 mmHg 78%
    11:00 +8°C° 0 mm 6 mps 754 mmHg 75%
    12:00 +8°C° 0 mm 6 mps 754 mmHg 75%
    13:00 +7°C° 0 mm 6 mps 755 mmHg 75%
    14:00 +7°C° 0 mm 6 mps 756 mmHg 75%
    15:00 +7°C° 0 mm 6 mps 756 mmHg 77%
    16:00 +6°C° 0 mm 5 mps 757 mmHg 78%
    17:00 +6°C° 0 mm 5 mps 758 mmHg 79%
    18:00 +5°C° 0 mm 4 mps 759 mmHg 82%
    19:00 +4°C° 0 mm 4 mps 760 mmHg 84%
    20:00 +4°C° 0 mm 3 mps 761 mmHg 87%
    21:00 +4°C° 0 mm 3 mps 761 mmHg 88%
    22:00 +4°C° 0 mm 2 mps 762 mmHg 88%
    23:00 +4°C° 0 mm 2 mps 763 mmHg 89%

    Day after tomorrow, 27 May, Sunday

    Time Temperature Precipitation Wind Pressure Humidity
    00:00 +4°C° 0 mm 2 mps 763 mmHg 89%
    01:00 +4°C° 0 mm 2 mps 763 mmHg 89%
    02:00 +4°C° 0 mm 2 mps 764 mmHg 89%
    03:00 +4°C° 0 mm 2 mps 764 mmHg 88%
    04:00 +4°C° 0 mm 2 mps 765 mmHg 87%
    05:00 +3°C° 0 mm 3 mps 765 mmHg 87%
    06:00 +5°C° 0 mm 2 mps 766 mmHg 82%
    07:00 +6°C° 0 mm 2 mps 766 mmHg 78%
    08:00 +8°C° 0 mm 2 mps 766 mmHg 74%
    09:00 +9°C° 0 mm 2 mps 767 mmHg 71%
    10:00 +10°C° 0 mm 2 mps 767 mmHg 68%
    11:00 +10°C° 0 mm 2 mps 767 mmHg 66%
    12:00 +10°C° 0 mm 2 mps 767 mmHg 66%
    13:00 +12°C° 0 mm 2 mps 767 mmHg 66%
    14:00 +11°C° 0 mm 3 mps 767 mmHg 66%
    15:00 +10°C° 0 mm 3 mps 767 mmHg 69%
    16:00 +10°C° 0 mm 3 mps 767 mmHg 71%
    17:00 +9°C° 0 mm 3 mps 767 mmHg 73%
    18:00 +7°C° 0 mm 4 mps 767 mmHg 76%
    19:00 +6°C° 0 mm 4 mps 767 mmHg 79%
    20:00 +5°C° 0 mm 4 mps 767 mmHg 83%
    21:00 +5°C° 0 mm 3 mps 767 mmHg 84%
    22:00 +4°C° 0 mm 3 mps 768 mmHg 85%
    23:00 +4°C° 0 mm 3 mps 768 mmHg 86%

    28 May, Monday

    Time Temperature Precipitation Wind Pressure Humidity
    00:00 +4°C° 0 mm 3 mps 767 mmHg 86%
    01:00 +4°C° 0 mm 3 mps 767 mmHg 85%
    02:00 +4°C° 0 mm 3 mps 767 mmHg 85%
    03:00 +4°C° 0 mm 3 mps 767 mmHg 85%
    04:00 +4°C° 0 mm 3 mps 767 mmHg 86%
    05:00 +4°C° 0 mm 3 mps 767 mmHg 87%
    06:00 +5°C° 0 mm 3 mps 767 mmHg 82%
    07:00 +7°C° 0 mm 3 mps 766 mmHg 78%
    08:00 +8°C° 0 mm 3 mps 766 mmHg 74%
    09:00 +9°C° 0 mm 3 mps 766 mmHg 69%
    10:00 +10°C° 0 mm 4 mps 765 mmHg 65%
    11:00 +11°C° 0 mm 4 mps 765 mmHg 60%
    12:00 +12°C° 0 mm 4 mps 764 mmHg 59%
    13:00 +13°C° 0 mm 4 mps 764 mmHg 57%
    14:00 +13°C° 0 mm 5 mps 763 mmHg 56%
    15:00 +13°C° 0 mm 5 mps 762 mmHg 56%
    16:00 +13°C° 0 mm 5 mps 762 mmHg 57%
    17:00 +14°C° 0 mm 6 mps 761 mmHg 57%
    18:00 +13°C° 0 mm 6 mps 761 mmHg 62%
    19:00 +11°C° 0 mm 6 mps 761 mmHg 67%
    20:00 +10°C° 0 mm 6 mps 760 mmHg 71%
    21:00 +9°C° 0 mm 6 mps 760 mmHg 77%
    22:00 +9°C° 0 mm 6 mps 759 mmHg 83%
    23:00 +8°C° 0 mm 6 mps 759 mmHg 89%

    29 May, Tuesday

    Time Temperature Precipitation Wind Pressure Humidity
    00:00 +8°C° 0.1 mm 7 mps 758 mmHg 91%
    01:00 +8°C° 0.1 mm 7 mps 757 mmHg 93%
    02:00 +8°C° 0.1 mm 7 mps 756 mmHg 95%
    03:00 +9°C° 0.1 mm 7 mps 755 mmHg 95%
    04:00 +9°C° 0.1 mm 7 mps 754 mmHg 95%
    05:00 +10°C° 0.1 mm 7 mps 753 mmHg 95%
    06:00 +10°C° 3.2 mm 7 mps 753 mmHg 95%
    07:00 +10°C° 3.2 mm 7 mps 752 mmHg 96%
    08:00 +11°C° 3.2 mm 7 mps 752 mmHg 97%
    09:00 +11°C° 0.9 mm 7 mps 751 mmHg 95%
    10:00 +11°C° 0.9 mm 7 mps 751 mmHg 94%
    11:00 +12°C° 0.9 mm 7 mps 751 mmHg 92%
    12:00 +12°C° 0 mm 7 mps 751 mmHg 85%
    13:00 +12°C° 0 mm 7 mps 752 mmHg 78%
    14:00 +12°C° 0 mm 7 mps 752 mmHg 71%
    15:00 +12°C° 0 mm 7 mps 753 mmHg 70%
    16:00 +12°C° 0 mm 7 mps 753 mmHg 70%
    17:00 +11°C° 0 mm 6 mps 754 mmHg 69%
    18:00 +10°C° 0 mm 5 mps 754 mmHg 69%
    19:00 +10°C° 0 mm 4 mps 755 mmHg 70%
    20:00 +8°C° 0 mm 4 mps 755 mmHg 70%
    21:00 +8°C° 0 mm 4 mps 755 mmHg 70%
    22:00 +8°C° 0 mm 4 mps 756 mmHg 69%
    23:00 +8°C° 0 mm 4 mps 756 mmHg 68%

    30 May, Wednesday

    Time Temperature Precipitation Wind Pressure Humidity
    00:00 +8°C° 0 mm 5 mps 756 mmHg 68%
    01:00 +8°C° 0 mm 5 mps 756 mmHg 68%
    02:00 +8°C° 0 mm 6 mps 756 mmHg 68%
    03:00 +8°C° 0 mm 5 mps 756 mmHg 68%
    04:00 +8°C° 0 mm 5 mps 756 mmHg 68%
    05:00 +8°C° 0 mm 4 mps 757 mmHg 69%
    06:00 +10°C° 0 mm 4 mps 757 mmHg 68%
    07:00 +10°C° 0 mm 4 mps 757 mmHg 68%
    08:00 +11°C° 0 mm 4 mps 757 mmHg 67%
    09:00 +10°C° 0 mm 5 mps 757 mmHg 66%
    10:00 +12°C° 0 mm 5 mps 757 mmHg 64%
    11:00 +12°C° 0 mm 5 mps 757 mmHg 63%
    12:00 +12°C° 0 mm 5 mps 757 mmHg 62%
    13:00 +12°C° 0 mm 5 mps 757 mmHg 62%
    14:00 +12°C° 0 mm 4 mps 757 mmHg 62%
    15:00 +12°C° 0 mm 4 mps 757 mmHg 62%
    16:00 +12°C° 0 mm 4 mps 757 mmHg 62%
    17:00 +11°C° 0 mm 4 mps 757 mmHg 63%
    18:00 +10°C° 0 mm 3 mps 757 mmHg 65%
    19:00 +10°C° 0 mm 2 mps 757 mmHg 68%
    20:00 +9°C° 0 mm 2 mps 758 mmHg 71%
    21:00 +9°C° 0 mm 2 mps 758 mmHg 69%
    22:00 +9°C° 0 mm 3 mps 758 mmHg 68%
    23:00 +9°C° 0 mm 3 mps 757 mmHg 66%
    Show more